Location: Gull Harbor
(47.1000°N, 122.9000°W)
Time: 07:26:04
(UTC-07:00)

Tiangong 2 - Visible Passes

Search period start: 23 March 2017 00:00
Search period end: 02 April 2017 00:00
Orbit: 374 x 384 km, 42.8° (Epoch: 21 March)

Date Brightness Start Highest point End Pass type
(mag) Time Alt. Az. Time Alt. Az. Time Alt. Az.
23 Mar 1.9 05:29:48 34° S 05:29:48 34° S 05:32:38 10° ESE visible
24 Mar 4.2 04:31:21 11° ESE 04:31:21 11° ESE 04:31:27 10° ESE visible
24 Mar 2.5 06:03:27 17° SW 06:04:44 23° SSW 06:07:17 10° SE visible
25 Mar 3.1 05:05:05 19° SE 05:05:05 19° SE 05:06:21 10° SE visible
26 Mar 3.0 05:38:55 17° SSW 05:38:55 17° SSW 05:40:37 10° SSE visible
